Location: Carnoy
(49.9849°N, 2.7558°E)
Time: 17:18:19
(UTC+00:00)

STARLINK-1069 - Pass Details

Date: 24 January 2020
Orbit: 348 x 351 km, 53.0° (Epoch: 26 February)

Event Time Altitude Azimuth Distance (km) Brightness Sun altitude
Rises 17:01:49 0° 261° (W) 2,168 8.6 -5.6°
Reaches altitude 10° 17:03:51 10° 266° (W) 1,326 7.0 -5.9°
Maximum altitude 17:06:46 57° 346° (NNW) 426 3.0 -6.3°
Drops below altitude 10° 17:09:42 10° 67° (ENE) 1,329 4.9 -6.7°
Enters shadow 17:09:51 - 68° (ENE) 1,390 5.0 -6.8°
